STRIX-4 (60352 NORAD) Tracking and Keplerian Element Data

This shows tracking and keplerian element data for the satellite.

Feedback or suggestion? Click here.




ElementValue
Catalog60352
NameSTRIX-4
Epoch Orbit1074
Epoch Day286.84385816
Epoch Year2024
RAAN110.173
Inclination43.0189
Eccentricity0.0006869
Argument of Perigee318.8629
Mean Anonmoly41.1698
Mean Motion15.09997372
Decay Rate0.00024974
L11 60352U 24137A 24286.84385816 .00024974 00000+0 15182-2 0 9992
L22 60352 43.0189 110.1730 0006869 318.8629 41.1698 15.09997372 10745



Live tracking and technical data element details for STRIX-4 (NORAD 60352). STRIX-4 can be tracked NOW for your location showing map with azimuth and elevation plus other details from your city location.







IsCatalogInMostPopularTable: catalog: 60352, numindb: 4
Update: records affected: 1



GetName: 60352 STRIX-4

Hit Count: updated at: Tue, 03 Dec 2024 02:21:42 GMT